EA7NW Cordoba ES current weather conditions

sailwx.info

Wind from 115 at 1 knots gusting 5

Air temperature 19.4° C
Dewpoint 19.0° C

Last reported at 2014-Sep-22 07:15 UTC.
Time now 2014-Sep-22 08:16 UTC

Location: N 37°53' W 004°48'.
View on Google Maps.

See reports from other nearby stations

  
Tides and Currents Weather Stations Pressure Air Temp Water Temp Dewpoint Dewpoint Depression Visibility Wind Speed Wind Dir Waves Ship Positions
date/time (UTC)wind fromknots sea level pressurealtimeterstation pressurevisibilityair tempwater tempwave heightnotes
2014-Sep-22 07:15 115 1 gusting 5 19.4
2014-Sep-22 07:00 115 2 gusting 5 19.4
2014-Sep-22 06:45 160 0 gusting 2 19.4
2014-Sep-22 06:30 205 18.9
2014-Sep-22 06:15 205 0 gusting 2 19.4
2014-Sep-22 05:45 205 2 gusting 4 19.4
2014-Sep-22 05:00 205 0 gusting 4 19.4
2014-Sep-22 04:30 250 1 gusting 2 19.4
2014-Sep-22 04:15 250 0 gusting 4 19.4
2014-Sep-22 04:00 295 2 gusting 4 20.0
2014-Sep-22 03:45 250 0 gusting 2 20.0
2014-Sep-22 03:00 205 1 gusting 4 20.6
2014-Sep-22 02:45 205 1 gusting 5 20.6
2014-Sep-22 02:15 295 21.1
2014-Sep-22 01:45 340 21.1
2014-Sep-22 01:30 340 21.1
2014-Sep-22 01:00 340 1 gusting 2 21.1
2014-Sep-22 00:45 340 0 gusting 2 21.1
2014-Sep-22 00:30 340 1 gusting 4 21.1
2014-Sep-22 00:15 340 0 gusting 6 21.1
2014-Sep-22 00:00 340 1 gusting 6 21.1
2014-Sep-21 23:15 318 2 gusting 5 21.7
2014-Sep-21 22:45 295 21.7
2014-Sep-21 22:30 250 0 gusting 4 22.2
2014-Sep-21 22:00 295 0 gusting 4 21.7
2014-Sep-21 21:15 295 0 gusting 4 22.8
2014-Sep-21 21:00 295 0 gusting 5 22.8
2014-Sep-21 20:45 250 2 gusting 8 22.8
2014-Sep-21 20:15 205 2 gusting 5 22.8
2014-Sep-21 19:30 160 2 gusting 11 22.8
2014-Sep-21 19:15 165 4 gusting 7 23.3
2014-Sep-21 19:00 160 3 gusting 10 23.9
2014-Sep-21 18:45 205 5 gusting 10 24.4
2014-Sep-21 18:30 250 2 gusting 5 24.4
2014-Sep-21 17:45 272 0 gusting 5 25.6
2014-Sep-21 17:15 295 2 gusting 6 26.1
2014-Sep-21 15:00 250 0 gusting 2 28.3
2014-Sep-21 14:45 250 28.3
2014-Sep-21 14:15 295 27.2
2014-Sep-21 14:00 340 2 gusting 6 26.1
2014-Sep-21 13:15 295 2 gusting 6 26.7
2014-Sep-21 12:45 295 4 gusting 6 26.7
2014-Sep-21 12:31 295 1 gusting 6 26.1
2014-Sep-21 12:15 295 1 gusting 4 26.7
2014-Sep-21 12:00 295 26.1
2014-Sep-21 11:30 250 1 gusting 4 25.6
2014-Sep-21 11:15 250 0 gusting 2 24.4
2014-Sep-21 11:00 250 0 gusting 2 24.4
2014-Sep-21 10:45 205 0 gusting 2 23.9
2014-Sep-21 10:30 250 23.3
2014-Sep-21 10:15 295 0 gusting 2 23.3
2014-Sep-21 10:00 295 22.8
2014-Sep-21 09:45 295 1 gusting 5 23.3
2014-Sep-21 09:15 340 1 gusting 5 22.8
2014-Sep-21 08:30 295 2 gusting 5 21.7
2014-Sep-21 08:15 295 2 gusting 5 21.1
2014-Sep-21 08:00 295 1 gusting 5 21.1
2014-Sep-21 07:30 295 1 gusting 4 20.6
2014-Sep-21 07:00 295 0 gusting 2 20.0
2014-Sep-21 06:00 295 0 gusting 2 20.0
2014-Sep-21 05:45 295 0 gusting 2 20.6
2014-Sep-21 05:29 295 20.6
2014-Sep-21 04:45 295 20.6
2014-Sep-21 04:30 295 0 gusting 1 20.6
2014-Sep-21 04:15 295 21.1
2014-Sep-21 03:45 295 21.1
2014-Sep-21 03:30 295 0 gusting 1 21.7
2014-Sep-21 03:15 295 0 gusting 2 21.7
2014-Sep-21 03:00 295 0 gusting 2 21.7
2014-Sep-21 02:30 295 1 gusting 2 22.2
2014-Sep-21 02:15 295 22.2
2014-Sep-21 01:30 295 0 gusting 4 22.8
2014-Sep-21 01:15 295 0 gusting 2 23.3
2014-Sep-21 00:45 295 23.3
2014-Sep-21 00:30 295 0 gusting 2 23.3
2014-Sep-21 00:00 295 23.9
2014-Sep-20 23:45 295 2 gusting 4 24.4
2014-Sep-20 23:00 306 1 gusting 5 24.4
2014-Sep-20 22:30 295 24.4
2014-Sep-20 21:30 205 1 gusting 4 25.0
2014-Sep-20 20:45 250 25.6
2014-Sep-20 20:30 250 25.6
2014-Sep-20 20:15 250 25.6
2014-Sep-20 20:00 250 25.6
2014-Sep-20 19:15 250 0 gusting 5 26.1
2014-Sep-20 18:45 250 1 gusting 5 26.7
2014-Sep-20 18:30 205 2 gusting 8 26.7
2014-Sep-20 17:30 205 5 gusting 8 27.8
2014-Sep-20 17:00 238 5 gusting 12 28.9
2014-Sep-20 16:30 205 4 gusting 11 29.4
2014-Sep-20 16:00 250 4 gusting 6 29.4
2014-Sep-20 15:45 250 4 gusting 8 29.4
2014-Sep-20 15:30 231 2 gusting 10 29.4
2014-Sep-20 15:00 160 4 gusting 11 30.0
2014-Sep-20 14:45 160 2 gusting 6 30.0
2014-Sep-20 14:15 340 4 gusting 8 29.4
2014-Sep-20 14:00 340 0 gusting 6 29.4
2014-Sep-20 13:00 340 0 gusting 5 29.4
2014-Sep-20 12:45 340 1 gusting 5 28.9
2014-Sep-20 12:15 287 1 gusting 6 28.9
2014-Sep-20 12:00 160 2 gusting 6 28.9
2014-Sep-20 11:45 160 2 gusting 6 28.9
2014-Sep-20 11:15 205 0 gusting 4 27.2
2014-Sep-20 11:00 260 0 gusting 5 27.2
2014-Sep-20 10:45 205 2 gusting 6 26.7
2014-Sep-20 10:30 220 2 gusting 6 26.7
2014-Sep-20 09:30 160 1 gusting 8 25.0
2014-Sep-20 09:15 070 2 gusting 6 25.6
2014-Sep-20 09:01 295 1 gusting 5 25.0
2014-Sep-20 08:45 295 2 gusting 7 23.9
2014-Sep-20 08:30 295 1 gusting 5 22.8
2014-Sep-20 08:00 295 1 gusting 2 22.2